TimeMDT,TemperatureF,Dew PointF,Humidity,Sea Level PressureIn,VisibilityMPH,Wind Direction,Wind SpeedMPH,Gust SpeedMPH,PrecipitationIn,Events,Conditions,WindDirDegrees,DateUTC
12:53 AM,43.0,19.9,40,30.05,10.0,SE,5.8,-,N/A,,Clear,130,2012-10-08 06:53:00
1:53 AM,42.1,21.9,45,30.05,10.0,SE,6.9,-,N/A,,Clear,140,2012-10-08 07:53:00
2:53 AM,42.1,23.0,47,30.04,10.0,SE,8.1,-,N/A,,Clear,130,2012-10-08 08:53:00
3:53 AM,39.9,23.0,51,30.03,10.0,SE,6.9,-,N/A,,Clear,140,2012-10-08 09:53:00
4:53 AM,39.9,25.0,55,30.03,10.0,SE,5.8,-,N/A,,Clear,140,2012-10-08 10:53:00
5:53 AM,39.0,25.0,57,30.03,10.0,SE,8.1,-,N/A,,Clear,130,2012-10-08 11:53:00
6:53 AM,41.0,26.1,55,30.04,10.0,SE,8.1,-,N/A,,Clear,130,2012-10-08 12:53:00
7:53 AM,39.0,25.0,57,30.06,10.0,ESE,8.1,-,N/A,,Partly Cloudy,120,2012-10-08 13:53:00
8:53 AM,46.9,26.1,44,30.04,10.0,SE,9.2,-,N/A,,Partly Cloudy,140,2012-10-08 14:53:00
9:53 AM,52.0,19.9,28,30.04,10.0,SE,8.1,-,N/A,,Partly Cloudy,130,2012-10-08 15:53:00
10:53 AM,57.9,18.0,21,30.01,10.0,Variable,4.6,-,N/A,,Partly Cloudy,0,2012-10-08 16:53:00
11:53 AM,60.1,18.0,20,29.99,10.0,Variable,3.5,-,N/A,,Partly Cloudy,0,2012-10-08 17:53:00
12:53 PM,64.9,17.1,16,29.97,10.0,Variable,5.8,-,N/A,,Partly Cloudy,0,2012-10-08 18:53:00
1:53 PM,68.0,21.9,17,29.94,10.0,NW,5.8,-,N/A,,Clear,310,2012-10-08 19:53:00
2:53 PM,70.0,21.0,16,29.91,10.0,Calm,Calm,-,N/A,,Clear,0,2012-10-08 20:53:00
3:53 PM,71.1,21.9,16,29.90,10.0,Variable,3.5,-,N/A,,Clear,0,2012-10-08 21:53:00
4:53 PM,71.1,24.1,17,29.88,10.0,NW,5.8,-,N/A,,Clear,320,2012-10-08 22:53:00
5:53 PM,69.1,24.1,18,29.89,10.0,North,4.6,-,N/A,,Partly Cloudy,350,2012-10-08 23:53:00
6:53 PM,63.0,26.1,25,29.88,10.0,NNW,3.5,-,N/A,,Partly Cloudy,330,2012-10-09 00:53:00
7:53 PM,60.8,28.4,29,29.94,10.0,Calm,Calm,-,N/A,,Partly Cloudy,0,2012-10-09 01:53:00
8:53 PM,57.9,27.0,31,29.87,10.0,SSE,6.9,-,N/A,,Clear,160,2012-10-09 02:53:00
9:53 PM,55.9,27.0,33,29.87,10.0,SSE,8.1,-,N/A,,Clear,150,2012-10-09 03:53:00
10:53 PM,53.1,28.0,38,29.86,10.0,ESE,4.6,-,N/A,,Clear,120,2012-10-09 04:53:00
11:53 PM,55.9,24.1,29,29.86,10.0,Calm,Calm,-,N/A,,Clear,0,2012-10-09 05:53:00